DG1GMY-13 Weather Reports


time (UTC)temp
C
wind
direction
speed
KPH
gust
KPH
rain 1hr
cm
rain 24hr
cm
rain mn
cm
humidity
%
barometer
mb
20260506002254 12 0.0 0.0 0.00 0.00 0.00 100 1008.9
20260505235249 12 0.0 0.0 0.00 0.00 0.00 100 1009.0
20260505232243 12 0.0 0.0 0.00 0.00 0.00 100 1009.2
20260505225237 12 0.0 0.0 0.00 0.00 0.00 100 1009.4
20260505222231 12 0.0 0.0 0.00 0.00 0.00 100 1009.5
20260505215225 12 0.0 0.0 0.00 0.00 0.00 100 1009.3
20260505212219 12 0.0 0.0 0.00 0.00 0.00 100 1009.3
20260505205213 13 0.0 0.0 0.00 0.00 0.00 100 1009.3
20260505202207 13 0.0 0.0 0.00 0.00 0.00 100 1009.3
20260505195201 13 0.0 0.0 0.00 0.00 0.00 100 1009.0
20260505192155 13 0.0 0.0 0.00 0.00 0.00 100 1009.0
20260505185149 12 0.0 0.0 0.00 0.00 0.00 100 1008.8
20260505182143 12 0.0 0.0 0.00 0.00 0.00 100 1008.9
20260505175137 12 0.0 0.0 0.00 0.00 0.00 100 1009.0
20260505172131 15 0.0 0.0 0.00 0.00 0.00 100 1008.4
20260505165125 16 0.0 0.0 0.00 0.00 0.00 86 1008.1
20260505162119 16 0.0 0.0 0.00 0.00 0.00 84 1008.4
20260505152107 16 0.0 0.0 0.00 0.00 0.00 82 1008.5
20260505125037 18 0.0 0.0 0.00 0.00 0.00 75 1009.7
20260505122031 17 0.0 0.0 0.00 0.00 0.00 80 1009.9
20260505115025 17 0.0 0.0 0.00 0.00 0.00 81 1009.9
20260505112019 16 0.0 0.0 0.00 0.00 0.00 76 1009.9
20260505102007 18 0.0 0.0 0.00 0.00 0.00 72 1010.2
20260505095001 17 0.0 0.0 0.00 0.00 0.00 78 1010.4
20260505091955 16 0.0 0.0 0.00 0.00 0.00 90 1010.4
20260505084949 15 0.0 0.0 0.00 0.00 0.00 92 1010.6
20260505081943 15 0.0 0.0 0.00 0.00 0.00 86 1010.8
20260505074937 15 0.0 0.0 0.00 0.00 0.00 88 1011.0
20260505071932 14 0.0 0.0 0.00 0.00 0.00 93 1011.0
20260505064926 13 0.0 0.0 0.00 0.00 0.00 91 1011.1
20260505061920 14 0.0 0.0 0.00 0.00 0.00 93 1011.1
20260505054914 13 0.0 0.0 0.00 0.00 0.00 94 1010.9
20260505051908 13 0.0 0.0 0.00 0.00 0.00 95 1011.1
20260505034850 11 0.0 0.0 0.00 0.00 0.00 92 1010.9
20260505031844 11 0.0 0.0 0.00 0.00 0.00 92 1011.1
20260505024838 12 0.0 0.0 0.00 0.00 0.00 87 1011.4
20260505021832 12 0.0 0.0 0.00 0.00 0.00 87 1011.7
20260505014826 12 0.0 0.0 0.00 0.00 0.00 89 1012.1
20260505011820 13 0.0 0.0 0.00 0.00 0.00 85 1012.3
20260505004814 13 0.0 0.0 0.00 0.00 0.00 82 1012.4